Погода в Топаре

Казахстан     49°31′16″N   72°49′37″E
темп.,
°C
ветер,
м/с
пор.,
м/с
влажн.,
%
обл.,
%
осадки,
мм/ч
давл.,
гПа
погр.,
м
2 марта, вт
вт200:00−2зюз71194100 0.1 1018715
03:00−7з2590100 0.1 1019175
06:00−9з2290100 0.1 101854
09:00−9зюз1291100 0.0 101830
12:00−6зюз4686100 0.0 1017386
15:00−5зюз5793100 0.7 1016494
18:00−6зюз6991100 0.8 1018695
21:00−11з71293100 0.4 1021505
3 марта, ср
ср300:00−15зюз51095100 0.4 1024334
03:00−16юз51095100 0.1 1025328
06:00−16юз51195100 0.2 1026333
09:00−18юз61196100 0.0 1027294
12:00−14юз71191100 0.1 1026373
15:00−11юз7118831 0.0 1026405
18:00−11юз7128815 0.0 1026331
21:00−12ююз6129225 0.0 1026260
4 марта, чт
чт400:00−11ююз7149056 0.0 1026288
03:00−11ююз7138656 0.0 1025271
06:00−11ююз6138265 0.0 1025234
09:00−10ю6148198 0.0 1023313
12:00−5ююз8157693 0.0 1022522
15:00−3ююз9157933 0.0 1019739
18:00−5ю8148967 0.0 1018566
21:00−7ю81388100 0.0 1018344
5 марта, пт
пт500:00−6ю71295100 0.3 1017345
03:00−4юз61195100 1.4 1016502
06:00−7з61296100 1.6 1020428
09:00−11з61197100 0.1 1026318
12:00−10юз7109199 0.1 1030380
15:00−8юз8138417 0.0 1030466
18:00−8юз814849 0.0 1031392
21:00−10ююз7148767 0.0 1031312
6 марта, сб
сб600:00−12ююз7138639 0.0 1031265
03:00−12ююз613840 0.0 1029253
06:00−14ююз510852 0.0 1028163
09:00−13ю598815 0.0 1028165
12:00−7ююз6118921 0.0 1026369
15:00−5юз478817 0.0 1024344
18:00−7ююз348932 0.0 102438
21:00−11ю238717 0.0 102421